"Time","Temp","Dewpoint","Humidity","Pressure","Direction","Speed","Gust","Precip","PrecipRate"
"00:04:59","69.8","66.2","88.3","29.66","215","0.1","1.2","0.00","0.01"
"00:09:56","69.8","65.6","86.5","29.66","194","1.9","6","0.00","0.00"
"00:14:58","70.2","65.1","84","29.66","193","1.6","6","0.00","0.00"
"00:19:56","70.6","65.3","83.4","29.66","193","0.2","1.2","0.00","0.00"
"00:24:57","70.9","65.3","82.6","29.66","176","0.8","4.8","0.00","0.00"
"00:29:58","71.2","65.1","81.1","29.66","161","2","4.8","0.00","0.00"
"00:34:59","71.5","65.1","80.1","29.65","178","2.9","7.2","0.00","0.00"
"00:39:58","71.7","65.2","80","29.65","178","1.7","4.8","0.00","0.00"
"00:44:59","71.6","65.2","80.4","29.65","178","1","4.6","0.00","0.00"
"00:49:57","71.4","65.1","80.5","29.65","180","1.8","6","0.00","0.00"
"00:54:58","71.3","65.2","81","29.65","180","1.5","3.6","0.00","0.00"
"00:59:56","71.1","65.1","81.4","29.65","180","1.8","3.6","0.00","0.00"
"01:04:56","71","65.2","82","29.64","198","2","4.8","0.00","0.00"
"01:09:59","70.8","65.3","82.9","29.64","186","2.3","6","0.00","0.00"
"01:14:57","70.7","65.3","83","29.65","193","2.1","7.2","0.00","0.00"
"01:19:58","70.6","65.4","83.8","29.65","193","1.6","3.6","0.00","0.00"
"01:24:59","70.5","65.5","84.3","29.65","194","0.3","2.4","0.00","0.00"
"01:29:57","70.4","65.5","84.5","29.65","194","0","0","0.00","0.00"
"01:34:58","70.3","65.6","85","29.64","194","0","0","0.00","0.00"
"01:39:57","70.1","65.8","86.1","29.64","194","0","0","0.00","0.00"
"01:44:59","70","66.1","87.4","29.64","194","0","0","0.00","0.00"
"01:49:56","69.7","66","87.8","29.64","194","0","0","0.00","0.00"
"01:54:56","69.6","65.9","88","29.64","194","0","0","0.00","0.00"
"01:59:58","69.4","65.7","88","29.64","194","0","0","0.00","0.00"
"02:04:59","69.3","65.7","88.2","29.63","194","0","0","0.00","0.00"
"02:09:58","69.2","66","89.6","29.63","194","0","0","0.00","0.00"
"02:14:56","69","65.8","89.6","29.64","194","0","0","0.00","0.00"
"02:19:57","68.8","65.4","89","29.64","194","0","0","0.00","0.00"
"02:24:59","68.8","65.4","89","29.64","194","0","0","0.00","0.00"
"02:29:56","68.9","65.5","89","29.64","194","0","0","0.00","0.00"
"02:34:57","68.9","65.6","89.3","29.64","194","0","0","0.00","0.00"
"02:39:56","68.9","65.7","89.8","29.64","194","0","0","0.00","0.00"
"02:44:57","68.8","65.7","90","29.65","194","0","0","0.00","0.00"
"02:49:59","68.7","65.6","90","29.65","194","0","0","0.00","0.00"
"02:54:56","68.6","65.5","90","29.65","194","0","0","0.00","0.00"
"02:59:58","68.5","65.4","90","29.65","194","0","0","0.00","0.00"
"03:04:56","68.5","65.4","90","29.64","194","0","0","0.00","0.00"
"03:09:59","68.4","65","89.1","29.64","194","0","0","0.00","0.00"
"03:14:57","68.3","64.9","89","29.65","194","0","0","0.00","0.00"
"03:19:58","68.3","64.9","89","29.65","194","0","0","0.00","0.00"
"03:24:59","68.3","64.9","89","29.65","191","0.9","3.6","0.00","0.00"
"03:29:57","68.4","65","89","29.65","191","0.8","4.8","0.00","0.00"
"03:34:56","68.4","65","89","29.65","191","0.9","4.6","0.00","0.00"
"03:39:56","68.4","65","88.9","29.65","188","1.5","3.6","0.00","0.00"
"03:44:58","68.5","64.8","88.2","29.65","162","1.4","6","0.00","0.00"
"03:49:57","68.5","64.8","88","29.64","163","0.1","1.2","0.00","0.00"
"03:54:59","68.5","64.8","88.2","29.64","162","0.5","2.4","0.00","0.00"
"03:59:56","68.4","65","89","29.64","162","0.6","3.6","0.00","0.00"
"04:04:58","68.3","64.9","89","29.63","162","0","0","0.00","0.00"
"04:09:57","68.2","64.8","89","29.63","162","0.3","2.4","0.00","0.00"
"04:14:57","67.9","64.8","89.6","29.63","162","0.2","1.2","0.00","0.00"
"04:19:59","67.7","64.7","90","29.63","163","0","0","0.00","0.00"
"04:24:56","67.6","64.6","90","29.63","162","0","0","0.00","0.00"
"04:29:58","67.5","64.5","90.2","29.64","162","0.4","2.4","0.00","0.00"
"04:34:59","67.3","64.6","91","29.64","162","0.3","2.4","0.00","0.00"
"04:39:57","67.2","64.7","91.7","29.64","162","0.2","2.4","0.00","0.00"
"04:44:58","67.2","64.8","92","29.64","163","0","0","0.00","0.00"
"04:49:56","67.1","64.7","92","29.64","162","0","0","0.00","0.00"
"04:54:57","67.1","64.7","92.1","29.64","162","0.5","3.6","0.00","0.00"
"04:59:58","67","64.9","92.9","29.64","163","0.9","3.5","0.00","0.00"
"05:04:58","67","64.9","93","29.64","163","0.5","2.4","0.00","0.00"
"05:09:57","67","64.9","93","29.64","163","0","0","0.00","0.00"
"05:14:58","66.9","64.8","93","29.65","163","0","0","0.00","0.00"
"05:19:59","66.9","64.8","93","29.65","163","0","0","0.00","0.00"
"05:24:56","66.9","65.1","94","29.65","162","0","0","0.00","0.00"
"05:29:57","66.8","65","94","29.66","163","0.5","3.6","0.00","0.00"
"05:34:57","66.8","65","94","29.66","163","1.5","3.6","0.00","0.00"
"05:39:58","66.8","65","94","29.66","173","0.7","2.4","0.00","0.00"
"05:44:59","66.8","65","94","29.66","175","1.1","3.6","0.00","0.00"
"05:49:56","66.7","64.9","94","29.66","175","0.3","2.4","0.00","0.00"
"05:54:57","66.7","64.9","94","29.66","175","1","2.4","0.00","0.00"
"05:59:58","66.7","64.9","94","29.66","175","0.8","3.6","0.00","0.00"
"06:04:59","66.7","64.9","94","29.66","175","0.4","2.4","0.00","0.00"
"06:09:58","66.7","64.9","94","29.66","175","0","1.2","0.00","0.00"
"06:14:56","66.7","64.9","94","29.66","170","0","0","0.00","0.00"
"06:19:57","66.7","64.9","94","29.66","170","0.8","3.6","0.00","0.00"
"06:24:57","66.7","64.9","94","29.66","171","0.9","4.8","0.00","0.00"
"06:29:57","66.7","65","94.3","29.67","171","0.1","2.4","0.00","0.00"
"06:34:57","66.7","65.2","94.9","29.67","171","0.1","1.2","0.00","0.00"
"06:39:58","66.7","65.2","94.9","29.67","171","0.1","1.2","0.00","0.00"
"06:44:59","66.8","65.3","95","29.67","171","0.4","2.4","0.00","0.00"
"06:49:59","66.9","65.4","95","29.67","171","0.6","3.6","0.00","0.00"
"06:54:56","67.1","65.6","95","29.67","170","0.9","3.6","0.00","0.00"
"06:59:57","67.3","65.6","94.5","29.67","170","1.2","3.6","0.00","0.00"
"07:04:57","67.4","65.6","94","29.67","171","0.5","2.4","0.00","0.00"
"07:09:59","67.5","65.7","94","29.67","171","1.3","3.6","0.00","0.00"
"07:14:56","67.7","65.9","94","29.67","171","1.4","2.4","0.00","0.00"
"07:19:57","67.8","66","93.8","29.67","171","1.1","3.6","0.00","0.00"
"07:24:56","68","65.9","93","29.67","171","0.5","2.4","0.00","0.00"
"07:29:57","68.1","66","93","29.67","171","0","1.2","0.00","0.00"
"07:34:57","68.4","66.3","93","29.66","171","0","0","0.00","0.00"
"07:39:58","68.9","66.6","92.4","29.66","171","0.9","2.4","0.00","0.00"
"07:44:59","69.1","66.7","92","29.66","171","0.5","2.4","0.00","0.00"
"07:49:56","69.4","66.9","91.7","29.66","171","0.7","2.4","0.00","0.00"
"07:54:56","69.8","67.1","91.1","29.66","171","0.3","2.4","0.00","0.00"
"07:59:57","70.1","67.1","90.2","29.67","171","0","0","0.00","0.00"
"08:04:57","70.5","67.5","90.2","29.67","171","0","0","0.00","0.00"
"08:09:56","71.1","68","90.2","29.67","171","0","0","0.00","0.00"
"08:14:57","71.6","68","88.4","29.67","171","0","0","0.00","0.00"
"08:19:58","71.7","67.9","87.8","29.67","171","0","0","0.00","0.00"
"08:24:58","71.7","67.9","87.7","29.67","171","0","0","0.00","0.00"
"08:29:58","71.9","68","87.5","29.68","171","0","0","0.00","0.00"
"08:34:59","72.1","68","87","29.68","171","0","0","0.00","0.00"
"08:39:56","72.3","68.2","86.8","29.68","171","0","0","0.00","0.00"
"08:44:56","72.5","68.4","86.9","29.68","171","0","0","0.00","0.00"
"08:49:57","72.8","68.4","86","29.68","171","0","0","0.00","0.00"
"08:54:56","73.3","69.2","86.9","29.68","171","0","0","0.00","0.00"
"08:59:56","73.9","69.3","85.5","29.68","171","0","0","0.00","0.00"
"09:04:56","74.4","69.4","84.6","29.68","171","0","0","0.00","0.00"
"09:09:59","74.7","69.4","83.5","29.68","171","0.5","3.6","0.00","0.00"
"09:14:56","74.8","69","82.4","29.69","171","0.4","2.4","0.00","0.00"
"09:19:56","74.8","69.3","83.1","29.69","244","0.1","2.4","0.00","0.00"
"09:24:56","74.9","69.2","82.3","29.69","244","0.1","2.4","0.00","0.00"
"09:29:56","75.2","69.5","82.4","29.69","244","1.1","2.4","0.00","0.00"
"09:34:57","75.4","69.4","81.8","29.69","244","0.2","2.4","0.00","0.00"
"09:39:58","75.5","69.2","80.8","29.69","244","0.3","2.4","0.00","0.00"
"09:44:56","75.6","69.5","81.2","29.69","244","0.3","2.4","0.00","0.00"
"09:49:57","75.8","69.6","81.3","29.69","235","0.7","3.6","0.00","0.00"
"09:54:57","76","69.5","80.4","29.69","218","0.7","3.5","0.00","0.00"
"09:59:57","76.1","69.3","79.5","29.69","218","0.1","2.4","0.00","0.00"
"10:04:57","76.6","70.2","80.4","29.69","193","0.7","2.4","0.00","0.00"
"10:09:56","77.3","70.2","78.8","29.69","190","0.9","3.6","0.00","0.00"
"10:14:57","77.5","70.1","78.2","29.69","191","1","3.6","0.00","0.00"
"10:19:57","77.5","69.9","77.3","29.69","194","1","3.6","0.00","0.00"
"10:24:57","77.7","70","77.2","29.69","198","1.1","3.6","0.00","0.00"
"10:29:57","78.1","70.4","77.4","29.69","216","0.5","6","0.00","0.00"
"10:34:57","78.5","70.2","75.7","29.69","349","2.2","5.8","0.00","0.00"
"10:39:56","79","70.4","75","29.69","346","1.9","6","0.00","0.00"
"10:44:57","79.2","69.7","72.7","29.69","330","1.9","3.6","0.00","0.00"
"10:49:59","79.4","70.6","74.4","29.69","345","1","6","0.00","0.00"
"10:54:56","79.9","70.2","72.5","29.69","352","3.8","8.4","0.00","0.00"
"10:59:58","80","70.4","72.5","29.69","351","1.1","6.9","0.00","0.00"
"11:04:59","80.6","70.3","71.1","29.69","203","3","6","0.00","0.00"
"11:09:56","80.8","69.9","69.4","29.69","236","3.3","8.4","0.00","0.00"
"11:14:58","80.9","70.2","70","29.69","243","2.6","6","0.00","0.00"
"11:19:56","81.2","70.6","70.1","29.69","231","2.9","6","0.00","0.00"
"11:24:57","81.6","70.7","69.5","29.69","213","3","8.4","0.00","0.00"
"11:29:59","82.2","70","66.6","29.69","211","3.7","8.1","0.00","0.00"
"11:34:56","82.2","69.5","65.5","29.68","215","2","6.9","0.00","0.00"
"11:39:59","82.3","69.6","65.5","29.68","251","2","6","0.00","0.00"
"11:44:56","82.1","70.1","67","29.68","205","1.5","3.6","0.00","0.00"
"11:49:58","82","69.6","66","29.68","218","2.9","7.2","0.00","0.00"
"11:54:59","82","69.4","65.7","29.68","217","1.8","6.9","0.00","0.00"
"11:59:57","82.8","69.5","64.4","29.68","317","2.4","8.4","0.00","0.00"
"12:04:59","82","68.4","63.3","29.68","351","2.3","8.1","0.00","0.00"
"12:09:59","81.6","68.3","64","29.68","294","1.5","6.9","0.00","0.00"
"12:14:56","81.5","68.3","64.4","29.68","28","1.6","4.8","0.00","0.00"
"12:19:58","81.4","67.3","62.4","29.67","106","1.8","7.2","0.00","0.00"
"12:24:55","81.4","67.6","63","29.67","201","0.2","5.8","0.00","0.00"
"12:29:57","81.6","68.3","64.1","29.67","201","1.6","4.8","0.00","0.00"
"12:34:58","81.6","67.6","62.5","29.67","202","1.2","3.6","0.00","0.00"
"12:39:57","81.4","68","63.8","29.67","203","1.8","4.8","0.00","0.00"
"12:44:58","81.1","68.2","64.9","29.67","203","1.4","3.6","0.00","0.00"
"12:49:56","81","68.6","66.1","29.67","202","1.1","4.8","0.00","0.00"
"12:54:57","80.9","68.3","65.6","29.67","202","2.2","4.6","0.00","0.00"
"12:59:59","80.9","67.7","64.1","29.67","202","1.5","4.8","0.00","0.00"
"13:04:56","80.9","67.4","63.7","29.67","202","0.8","3.6","0.00","0.00"
"13:09:57","80.7","67.7","64.7","29.67","273","2.5","7.2","0.00","0.00"
"13:14:59","80","69.3","70","29.67","211","2.9","6.9","0.00","0.00"
"13:19:56","79","70.6","75.4","29.67","195","0.5","2.4","0.00","0.00"
"13:24:57","78.9","70.8","76.2","29.67","195","1","2.4","0.00","0.00"
"13:29:59","79.3","70.9","75.5","29.67","195","1.4","3.6","0.00","0.00"
"13:34:56","79.6","70","72.5","29.66","249","2.9","6","0.00","0.00"
"13:39:59","79.6","70.2","73","29.66","215","3.7","10.8","0.00","0.00"
"13:44:56","79.1","69.9","73.7","29.66","212","4.9","9.6","0.00","0.00"
"13:49:56","78","69.4","75","29.66","197","3.7","6","0.00","0.00"
"13:54:57","77.1","69","76.2","29.66","209","3","8.4","0.00","0.00"
"13:59:58","76.3","67.5","74.3","29.68","294","5.1","13.2","0.00","0.00"
"14:04:57","76","67.3","74.5","29.68","276","4.2","14.4","0.00","0.00"
"14:09:56","76","67.3","74.4","29.68","323","3","10.8","0.00","0.00"
"14:14:56","76.3","68","75.5","29.68","287","3.1","10.8","0.00","0.00"
"14:19:57","76.1","67.7","75.2","29.68","280","3.8","10.4","0.00","0.00"
"14:24:57","76.1","67.8","75.6","29.68","320","4.1","12","0.00","0.00"
"14:29:57","76.5","68.1","75.4","29.68","293","5","12","0.00","0.00"
"14:34:58","76.4","68.1","75.3","29.68","293","3.4","12","0.00","0.00"
"14:39:59","76.7","68.6","76.1","29.68","344","2.7","7.2","0.00","0.00"
"14:44:59","77","67.6","72.9","29.69","290","3.6","10.8","0.00","0.00"
"14:49:59","77.2","67.7","72.5","29.69","330","3.4","8.4","0.00","0.00"
"14:54:59","76.9","67.2","72","29.69","275","3.2","8.1","0.00","0.00"
"14:59:59","76.1","66.9","73.3","29.69","292","4","15","0.00","0.00"
"15:04:59","76","66.9","73.5","29.69","254","3.3","10.8","0.00","0.00"
"15:09:58","75.8","66.4","72.8","29.69","320","4.9","12","0.00","0.00"
"15:14:58","75.8","66.7","73.5","29.69","311","2.6","6.9","0.00","0.00"
"15:19:59","76.4","67.1","73","29.68","250","2.6","6","0.00","0.00"
"15:24:58","77.4","68","72.8","29.68","231","2.9","6","0.00","0.00"
"15:29:59","78.3","69","73.2","29.68","212","2.7","7.2","0.00","0.00"
"15:34:58","78.2","67.7","70.3","29.68","236","2.7","8.4","0.00","0.00"
"15:39:56","77.7","67.5","71","29.68","267","2.4","8.1","0.00","0.00"
"15:44:56","78.2","68","71","29.68","320","2.6","4.8","0.00","0.00"
"15:49:56","78.6","68.3","71","29.67","336","3","7.2","0.00","0.00"
"15:54:57","79.5","69.6","71.9","29.67","348","2.4","7.2","0.00","0.00"
"15:59:59","81.1","69.9","68.8","29.67","215","3.6","10.8","0.00","0.00"
"16:04:56","81.6","69.3","66.3","29.67","289","3.5","8.4","0.00","0.00"
"16:09:56","81.3","69.4","67.1","29.67","275","2.5","6.9","0.00","0.00"
"16:14:59","81.5","68.9","65.8","29.67","216","4.4","10.8","0.00","0.00"
"16:19:56","81.1","69.1","66.8","29.66","250","3.3","9.2","0.00","0.00"
"16:24:58","81.6","69.7","67.4","29.66","222","3","9.6","0.00","0.00"
"16:29:59","82.3","69.5","65.5","29.67","306","3.2","10.8","0.00","0.00"
"16:34:56","82.1","68.8","64.2","29.67","340","2.6","10.4","0.00","0.00"
"16:39:59","82.1","69.6","66","29.67","258","3.2","6","0.00","0.00"
"16:44:56","82.4","69.7","65.7","29.68","249","3.6","8.4","0.00","0.00"
"16:49:58","81.9","68.6","64.3","29.68","328","3.7","15","0.00","0.00"
"16:54:59","81","68.4","65.5","29.68","301","3.2","7.2","0.00","0.00"
"16:59:57","80.5","68.1","66.1","29.68","340","3.6","12","0.00","0.00"
"17:04:58","80.2","67.9","66.2","29.68","293","4.7","12","0.00","0.00"
"17:09:58","79.9","68.1","67.3","29.68","280","2.9","8.1","0.00","0.00"
"17:14:56","80","68.3","67.5","29.68","322","3.8","10.8","0.00","0.00"
"17:19:58","80.1","68.5","67.8","29.68","330","4.7","13.2","0.00","0.00"
"17:24:59","79.9","68.4","68.1","29.68","282","3.5","10.8","0.00","0.00"
"17:29:57","79.6","68.7","69.5","29.68","263","2.3","7.2","0.00","0.00"
"17:34:58","79.4","68.9","70.3","29.68","310","2.8","8.4","0.00","0.00"
"17:39:55","78.8","69.3","72.9","29.68","302","3.6","8.4","0.00","0.00"
"17:44:59","78","69.4","75","29.69","289","1.7","4.8","0.00","0.00"
"17:49:56","77.1","69","76.1","29.69","255","5.1","13.2","0.01","0.01"
"17:54:59","76.1","68.8","78.2","29.69","223","2.8","6.9","0.02","0.02"
"17:59:56","75.9","69.2","79.7","29.69","223","1.4","3.6","0.02","0.02"
"18:04:59","76","69.3","79.8","29.69","247","1.9","3.6","0.02","0.02"
"18:09:58","76.5","70.2","80.9","29.69","247","2.1","7.2","0.02","0.02"
"18:14:59","77.4","70.2","78.6","29.69","262","2.6","4.8","0.02","0.02"
"18:19:59","78.1","69.7","75.7","29.69","304","2.2","8.4","0.02","0.02"
"18:24:59","78.5","68.4","71.2","29.69","298","3.2","7.2","0.02","0.02"
"18:29:59","78.7","67.6","69","29.69","291","4","7.2","0.02","0.02"
"18:34:59","78.7","67.5","68.5","29.69","319","3.1","7.2","0.02","0.02"
"18:39:57","78.9","66.9","66.7","29.69","317","3.3","8.4","0.02","0.02"
"18:44:58","79","66.5","65.7","29.70","289","3.2","10.8","0.02","0.02"
"18:49:56","79","66.5","65.5","29.70","324","2.6","8.4","0.02","0.02"
"18:54:57","79","67","66.8","29.70","246","3.7","10.8","0.02","0.01"
"18:59:58","78.7","66.6","66.5","29.70","260","4.4","12","0.02","0.00"
"19:04:58","78.3","66.6","67.4","29.70","239","3","7.2","0.02","0.00"
"19:09:57","78.1","66.5","67.7","29.70","248","3","6","0.02","0.00"
"19:14:58","77.8","66.3","67.8","29.71","291","2.6","7.2","0.02","0.00"
"19:19:58","77.7","66.2","67.8","29.71","336","2.2","4.8","0.02","0.00"
"19:24:58","77.8","66.1","67.5","29.71","310","2.6","12","0.02","0.00"
"19:29:58","77.7","65.5","66.2","29.71","352","4.1","12","0.02","0.00"
"19:34:58","77.4","64.8","65.3","29.71","301","3.6","10.8","0.02","0.00"
"19:39:59","77","64.8","66","29.71","340","3.4","9.6","0.02","0.00"
"19:44:59","76.8","64.8","66.6","29.71","310","3.8","12","0.02","0.00"
"19:49:59","76.5","64.9","67.6","29.71","328","2.1","6","0.02","0.00"
"19:54:59","76.3","65.1","68.2","29.71","338","2","6","0.02","0.00"
"19:59:56","76.1","65.1","68.7","29.72","299","1.9","4.8","0.02","0.00"
"20:04:59","76","65.2","69.2","29.72","279","0.8","2.4","0.02","0.00"
"20:09:58","75.8","65.1","69.4","29.72","277","1.2","3.6","0.02","0.00"
"20:14:59","75.7","65.5","70.6","29.74","277","0.5","3.5","0.02","0.00"
"20:19:59","75.6","65.5","71","29.74","243","1.2","3.6","0.02","0.00"
"20:24:56","75.5","65.4","71","29.74","208","1.9","4.8","0.02","0.00"
"20:29:56","75.3","65.4","71.5","29.75","209","1.7","3.6","0.02","0.00"
"20:34:56","75.2","65.3","71.5","29.75","285","1.3","4.8","0.02","0.00"
"20:39:58","75.2","65.2","71.2","29.75","323","2","7.2","0.02","0.00"
"20:44:59","75.2","65.2","71.2","29.75","338","2.2","6","0.02","0.00"
"20:49:57","75.1","65.2","71.3","29.75","323","1.8","5.8","0.02","0.00"
"20:54:58","74.9","65","71.2","29.75","241","1.5","6","0.02","0.00"
"20:59:59","74.8","64.8","71.2","29.76","301","1.8","5.8","0.02","0.00"
"21:04:59","74.7","64.9","71.5","29.76","276","2","6","0.02","0.00"
"21:09:58","74.6","65","72","29.76","245","1.9","7.2","0.02","0.00"
"21:14:59","74.4","64.8","72","29.77","306","2.1","6","0.02","0.00"
"21:19:56","74.4","64.8","72","29.77","330","1.2","5.8","0.02","0.00"
"21:24:57","74.3","64.7","72","29.77","321","1.6","6","0.02","0.00"
"21:29:59","74.2","64.6","72","29.77","321","1.5","4.8","0.02","0.00"
"21:34:56","74.2","64.6","72","29.77","321","0","1.2","0.02","0.00"
"21:39:59","74.1","64.9","73","29.77","319","0","0","0.02","0.00"
"21:44:56","73.9","64.8","73.3","29.77","339","0.5","3.6","0.02","0.00"
"21:49:57","73.7","64.7","73.3","29.77","297","0.8","3.6","0.02","0.00"
"21:54:58","73.6","64.6","73.5","29.77","169","1.6","4.8","0.02","0.00"
"21:59:56","73.5","64.6","73.6","29.78","240","1.3","4.8","0.02","0.00"
"22:04:56","73.4","64.6","74","29.78","222","1.5","3.6","0.02","0.00"
"22:09:59","73.3","64.5","74","29.78","250","1.4","3.6","0.02","0.00"
"22:14:56","73.1","64.3","74","29.79","279","0.6","3.6","0.02","0.00"
"22:19:57","73","64.2","74","29.79","302","2.5","7.2","0.02","0.00"
"22:24:58","72.8","64.2","74.5","29.79","292","1.6","4.8","0.02","0.00"
"22:29:59","72.7","64.3","75","29.79","276","1.1","4.8","0.02","0.00"
"22:34:56","72.4","64","75","29.79","276","0.4","3.6","0.02","0.00"
"22:39:59","72.3","63.9","75","29.79","277","0.5","3.6","0.02","0.00"
"22:44:56","72.2","63.8","75","29.79","277","0.2","2.4","0.02","0.00"
"22:49:58","72","63.9","75.7","29.79","277","0","0","0.02","0.00"
"22:54:58","71.8","63.8","76","29.79","277","0","0","0.02","0.00"
"22:59:56","71.6","63.6","76.1","29.79","277","0","0","0.02","0.00"
"23:04:56","71.2","63.7","77.2","29.79","277","0","1.2","0.02","0.00"
"23:09:59","70.9","63.6","77.8","29.79","277","0.1","2.4","0.02","0.00"
"23:14:57","70.6","63.4","78","29.80","276","0.4","2.4","0.02","0.00"
"23:19:59","70.5","63.3","78","29.80","276","0.1","1.2","0.02","0.00"
"23:24:56","70.5","63.3","78.1","29.80","276","0","1.2","0.02","0.00"
"23:29:58","70.5","63.3","78","29.80","276","0.4","3.6","0.02","0.00"
"23:34:59","70.6","63.4","78","29.80","284","1","3.6","0.02","0.00"
"23:39:57","70.6","63.4","78","29.80","290","0.4","3.5","0.02","0.00"
"23:44:58","70.5","63.5","78.4","29.80","290","0.5","3.6","0.02","0.00"
"23:49:56","70.4","63.6","79","29.80","290","0.4","1.2","0.02","0.00"
"23:54:57","70.3","63.5","79","29.80","289","0.4","2.4","0.02","0.00"
